Weather in Puksib

Russia / Perm Krai     59°46′36″N   55°01′03″E
temp.,
°C
wind,
m/s
gust,
m/s
humid.,
%
clouds,
%
prec.,
mm/h
press.,
hPa
HPBL,
m
28 february, sun
sun2823:00−20e3109277 0.0 1012325
02:00−22e38945 0.0 1012184
05:00−24ene37942 0.0 1013166
08:00−25ene36940 0.0 1013126
11:00−20ene37900 0.0 1013349
14:00−15ene358828 0.0 1013506
17:00−14ne368963 0.0 1014559
20:00−18nne239789 0.0 101544
1 march, mon
mon123:00−20ne229971 0.0 101720
02:00−23ne119917 0.0 101820
05:00−23e01989 0.0 101920
08:00−24sw00970 0.0 102020
11:00−18ssw12900 0.0 1019170
14:00−13sw249123 0.0 1018384
17:00−12ssw359261 0.0 1016426
20:00−17s389677 0.0 1014180
2 march, tue
tue223:00−15ssw4119488 0.0 1013353
02:00−15s51192100 0.0 1009379
05:00−15s51294100 0.2 1006432
08:00−13s51294100 0.7 1003524
11:00−12s51194100 1.4 1002549
14:00−12s5994100 0.8 1000535
17:00−11s4994100 1.4 1000528
20:00−12s4994100 0.5 1000438
3 march, wed
wed323:00−13s3795100 0.9 1000303
02:00−13s2696100 0.1 1000215
05:00−13s2497100 0.3 1000154
08:00−13s1297100 0.3 99948
11:00−10ssw1293100 0.4 1000237
14:00−6wnw1291100 0.1 1000390
17:00−6nnw1394100 0.4 1000329
20:00−7nnw41095100 0.8 1001640
4 march, thu
thu423:00−9nnw3109498 0.9 1002421
02:00−15nw269864 0.0 100292
05:00−14wnw249876 0.1 100396
08:00−13wnw379795 0.1 1004202
11:00−11wnw359593 0.2 1004290
14:00−8w2491100 0.0 1004533
17:00−7sw3590100 0.1 1003684
20:00−9ssw399399 0.0 1002325